Location: De Har
(53.3413°N, 6.6858°E)
Time: 07:41:26
(UTC+00:00)

Cosmos 1470 - Pass Details

Date: 22 April 2026
Orbit: 421 x 434 km, 82.5° (Epoch: 15 May)

Event Time Altitude Azimuth Distance (km) Brightness Sun altitude
Rises 01:33:19 0° 349° (N) 2,415 6.8 -19.6°
Reaches altitude 10° 01:35:23 10° 350° (N) 1,540 5.8 -19.4°
Maximum altitude 01:38:44 85° 76° (ENE) 437 2.2 -19.1°
Enters shadow 01:39:11 64° 159° (SSE) 481 2.3 -19.1°
